TimeEST,TemperatureF,Dew PointF,Humidity,Sea Level PressureIn,VisibilityMPH,Wind Direction,Wind SpeedMPH,Gust SpeedMPH,PrecipitationIn,Events,Conditions,WindDirDegrees,DateUTC
12:15 AM,30.2,23.0,75,30.30,10.0,North,6.9,-,N/A,,Overcast,350,2014-02-04 05:15:00
12:35 AM,30.2,23.0,75,30.30,10.0,NNW,9.2,-,N/A,,Overcast,340,2014-02-04 05:35:00
12:55 AM,30.2,23.0,75,30.31,10.0,NNW,6.9,-,N/A,,Overcast,340,2014-02-04 05:55:00
1:15 AM,28.4,23.0,80,30.31,10.0,NNW,6.9,-,N/A,,Overcast,330,2014-02-04 06:15:00
1:35 AM,28.4,21.2,74,30.32,10.0,NNW,8.1,-,N/A,,Overcast,340,2014-02-04 06:35:00
1:55 AM,28.4,21.2,74,30.33,10.0,NNW,8.1,-,N/A,,Overcast,330,2014-02-04 06:55:00
2:15 AM,28.4,21.2,74,30.34,10.0,NNW,10.4,-,N/A,,Overcast,330,2014-02-04 07:15:00
2:35 AM,28.4,21.2,74,30.33,10.0,NNW,10.4,-,N/A,,Overcast,330,2014-02-04 07:35:00
2:55 AM,26.6,19.4,74,30.34,10.0,NNW,9.2,-,N/A,,Overcast,330,2014-02-04 07:55:00
3:15 AM,26.6,19.4,74,30.35,10.0,NW,6.9,-,N/A,,Overcast,320,2014-02-04 08:15:00
3:35 AM,26.6,19.4,74,30.36,10.0,NW,6.9,-,N/A,,Overcast,310,2014-02-04 08:35:00
3:55 AM,24.8,17.6,74,30.35,10.0,NW,6.9,-,N/A,,Overcast,320,2014-02-04 08:55:00
4:15 AM,24.8,17.6,74,30.35,10.0,NW,6.9,-,N/A,,Overcast,320,2014-02-04 09:15:00
4:35 AM,24.8,17.6,74,30.36,10.0,NW,6.9,-,N/A,,Overcast,310,2014-02-04 09:35:00
4:55 AM,24.8,15.8,69,30.38,10.0,WNW,6.9,-,N/A,,Overcast,300,2014-02-04 09:55:00
5:15 AM,24.8,15.8,69,30.38,10.0,NW,5.8,-,N/A,,Overcast,320,2014-02-04 10:15:00
5:35 AM,23.0,15.8,74,30.38,10.0,NW,5.8,-,N/A,,Overcast,320,2014-02-04 10:35:00
5:55 AM,23.0,15.8,74,30.39,10.0,NW,6.9,-,N/A,,Overcast,320,2014-02-04 10:55:00
6:15 AM,21.2,14.0,74,30.38,10.0,NW,6.9,-,N/A,,Mostly Cloudy,320,2014-02-04 11:15:00
6:35 AM,21.2,14.0,74,30.39,10.0,NNW,4.6,-,N/A,,Mostly Cloudy,330,2014-02-04 11:35:00
6:55 AM,19.4,12.2,74,30.39,10.0,NW,5.8,-,N/A,,Overcast,320,2014-02-04 11:55:00
7:15 AM,19.4,14.0,80,30.39,10.0,NW,5.8,-,N/A,,Overcast,320,2014-02-04 12:15:00
7:35 AM,19.4,14.0,80,30.41,10.0,NW,5.8,-,N/A,,Mostly Cloudy,310,2014-02-04 12:35:00
7:55 AM,19.4,12.2,74,30.42,10.0,NW,5.8,-,N/A,,Overcast,310,2014-02-04 12:55:00
8:15 AM,21.2,14.0,74,30.43,10.0,NW,4.6,-,N/A,,Overcast,320,2014-02-04 13:15:00
8:35 AM,21.2,14.0,74,30.44,10.0,NW,6.9,-,N/A,,Scattered Clouds,320,2014-02-04 13:35:00
8:55 AM,23.0,15.8,74,30.45,10.0,NW,6.9,-,N/A,,Partly Cloudy,320,2014-02-04 13:55:00
9:15 AM,24.8,17.6,74,30.45,10.0,NNW,5.8,-,N/A,,Clear,340,2014-02-04 14:15:00
9:35 AM,26.6,17.6,69,30.45,10.0,North,5.8,-,N/A,,Clear,350,2014-02-04 14:35:00
9:55 AM,26.6,17.6,69,30.46,10.0,North,4.6,-,N/A,,Clear,350,2014-02-04 14:55:00
10:15 AM,26.6,17.6,69,30.46,9.0,North,5.8,-,N/A,,Clear,360,2014-02-04 15:15:00
10:35 AM,28.4,19.4,69,30.46,10.0,North,4.6,-,N/A,,Clear,10,2014-02-04 15:35:00
10:55 AM,28.4,19.4,69,30.45,10.0,North,4.6,-,N/A,,Clear,350,2014-02-04 15:55:00
11:15 AM,28.4,19.4,69,30.45,10.0,NE,4.6,-,N/A,,Clear,40,2014-02-04 16:15:00
11:35 AM,30.2,21.2,69,30.43,10.0,North,4.6,-,N/A,,Clear,350,2014-02-04 16:35:00
11:55 AM,32.0,21.2,64,30.43,10.0,Calm,Calm,-,N/A,,Clear,0,2014-02-04 16:55:00
12:15 PM,32.0,21.2,64,30.41,10.0,Calm,Calm,-,N/A,,Clear,0,2014-02-04 17:15:00
12:35 PM,32.0,23.0,69,30.40,10.0,Calm,Calm,-,N/A,,Clear,0,2014-02-04 17:35:00
12:55 PM,33.8,23.0,65,30.41,10.0,Calm,Calm,-,N/A,,Partly Cloudy,0,2014-02-04 17:55:00
1:15 PM,33.8,23.0,65,30.40,7.0,Calm,Calm,-,N/A,,Mostly Cloudy,0,2014-02-04 18:15:00
1:35 PM,33.8,24.8,70,30.41,10.0,Calm,Calm,-,N/A,,Mostly Cloudy,0,2014-02-04 18:35:00
1:55 PM,33.8,23.0,65,30.42,10.0,WNW,3.5,-,N/A,,Overcast,300,2014-02-04 18:55:00
2:15 PM,33.8,23.0,65,30.41,10.0,NW,6.9,-,N/A,,Overcast,310,2014-02-04 19:15:00
2:35 PM,33.8,23.0,65,30.40,10.0,North,8.1,-,N/A,,Overcast,360,2014-02-04 19:35:00
2:55 PM,33.8,23.0,65,30.39,10.0,NNW,8.1,-,N/A,,Mostly Cloudy,340,2014-02-04 19:55:00
3:15 PM,33.8,21.2,60,30.38,10.0,Calm,Calm,-,N/A,,Mostly Cloudy,0,2014-02-04 20:15:00
3:35 PM,33.8,21.2,60,30.38,10.0,Calm,Calm,-,N/A,,Scattered Clouds,0,2014-02-04 20:35:00
3:55 PM,33.8,21.2,60,30.38,10.0,Calm,Calm,-,N/A,,Mostly Cloudy,0,2014-02-04 20:55:00
4:15 PM,33.8,21.2,60,30.37,10.0,Calm,Calm,-,N/A,,Overcast,0,2014-02-04 21:15:00
4:35 PM,33.8,21.2,60,30.36,10.0,ENE,6.9,-,N/A,,Overcast,70,2014-02-04 21:35:00
4:55 PM,30.2,23.0,75,30.36,10.0,ENE,4.6,-,N/A,,Scattered Clouds,60,2014-02-04 21:55:00
5:15 PM,30.2,23.0,75,30.38,10.0,NNE,4.6,-,N/A,,Partly Cloudy,20,2014-02-04 22:15:00
5:35 PM,30.2,21.2,69,30.38,10.0,NNE,3.5,-,N/A,,Clear,30,2014-02-04 22:35:00
5:55 PM,30.2,23.0,75,30.39,10.0,Calm,Calm,-,N/A,,Clear,0,2014-02-04 22:55:00
6:15 PM,30.2,24.8,80,30.37,10.0,ENE,4.6,-,N/A,,Clear,60,2014-02-04 23:15:00
6:35 PM,30.2,23.0,75,30.37,10.0,NE,4.6,-,N/A,,Mostly Cloudy,50,2014-02-04 23:35:00
6:55 PM,30.2,23.0,75,30.37,10.0,NE,4.6,-,N/A,,Overcast,50,2014-02-04 23:55:00
7:15 PM,30.2,23.0,75,30.36,10.0,NE,5.8,-,N/A,,Mostly Cloudy,40,2014-02-05 00:15:00
7:35 PM,30.2,23.0,75,30.36,10.0,NE,3.5,-,N/A,,Partly Cloudy,40,2014-02-05 00:35:00
7:55 PM,30.2,23.0,75,30.36,10.0,Calm,Calm,-,N/A,,Scattered Clouds,0,2014-02-05 00:55:00
8:15 PM,30.2,23.0,75,30.38,10.0,Calm,Calm,-,N/A,,Overcast,0,2014-02-05 01:15:00
8:35 PM,30.2,21.2,69,30.37,10.0,NNE,4.6,-,N/A,,Overcast,30,2014-02-05 01:35:00
8:55 PM,30.2,24.8,80,30.35,10.0,NE,4.6,-,N/A,,Overcast,50,2014-02-05 01:55:00
9:15 PM,30.2,24.8,80,30.33,10.0,NE,4.6,-,N/A,,Overcast,50,2014-02-05 02:15:00
9:35 PM,30.2,24.8,80,30.32,10.0,NE,3.5,-,N/A,,Overcast,50,2014-02-05 02:35:00
9:55 PM,30.2,24.8,80,30.32,10.0,NE,3.5,-,N/A,,Overcast,40,2014-02-05 02:55:00
10:15 PM,30.2,24.8,80,30.31,10.0,NNE,4.6,-,N/A,,Overcast,30,2014-02-05 03:15:00
10:35 PM,32.0,24.8,75,30.30,10.0,NE,5.8,-,N/A,,Overcast,40,2014-02-05 03:35:00
10:55 PM,32.0,24.8,75,30.27,10.0,ENE,6.9,-,N/A,,Overcast,60,2014-02-05 03:55:00
11:15 PM,32.0,24.8,75,30.27,10.0,NE,5.8,-,N/A,,Overcast,50,2014-02-05 04:15:00
11:35 PM,32.0,26.6,80,30.24,10.0,ENE,6.9,-,N/A,,Overcast,60,2014-02-05 04:35:00
11:55 PM,33.8,26.6,75,30.22,10.0,East,8.1,-,N/A,,Overcast,80,2014-02-05 04:55:00